| time (UTC) | temp C | wind direction | speed KPH | gust KPH | rain 1hr cm | rain 24hr cm | rain mn cm | humidity % | barometer mb |
| 20260508194606 | 18 | 259 | 6.4 | 25.7 | 0.00 | 0.00 | 0.00 | 54 | 1010.6 |
| 20260508194058 | 18 | 246 | 12.9 | 27.4 | 0.00 | 0.00 | 0.00 | 52 | 1010.7 |
| 20260508193558 | 18 | 218 | 14.5 | 33.8 | 0.00 | 0.00 | 0.00 | 52 | 1010.8 |
| 20260508193119 | 18 | 238 | 12.9 | 33.8 | 0.00 | 0.00 | 0.00 | 52 | 1011.0 |
| 20260508192555 | 18 | 275 | 11.3 | 27.4 | 0.00 | 0.00 | 0.00 | 53 | 1011.0 |
| 20260508192104 | 18 | 240 | 12.9 | 30.6 | 0.00 | 0.00 | 0.00 | 51 | 1011.0 |
| 20260508191608 | 18 | 286 | 12.9 | 30.6 | 0.00 | 0.00 | 0.00 | 51 | 1011.3 |
| 20260508191100 | 18 | 296 | 14.5 | 30.6 | 0.00 | 0.00 | 0.00 | 53 | 1011.2 |
| 20260508190600 | 18 | 215 | 14.5 | 27.4 | 0.00 | 0.00 | 0.00 | 54 | 1011.2 |
| 20260508190113 | 18 | 272 | 12.9 | 27.4 | 0.00 | 0.00 | 0.00 | 55 | 1011.1 |
| 20260508185600 | 18 | 225 | 12.9 | 25.7 | 0.00 | 0.00 | 0.00 | 55 | 1011.2 |
| 20260508185100 | 18 | 261 | 12.9 | 27.4 | 0.00 | 0.00 | 0.00 | 55 | 1011.4 |
| 20260508184613 | 18 | 267 | 14.5 | 29.0 | 0.00 | 0.00 | 0.00 | 55 | 1011.4 |
| 20260508184100 | 18 | 228 | 14.5 | 30.6 | 0.00 | 0.00 | 0.00 | 55 | 1011.4 |
| 20260508183559 | 18 | 234 | 12.9 | 30.6 | 0.00 | 0.00 | 0.00 | 55 | 1011.5 |
| 20260508183102 | 18 | 250 | 12.9 | 30.6 | 0.00 | 0.00 | 0.00 | 54 | 1011.3 |
| 20260508182601 | 18 | 252 | 14.5 | 30.6 | 0.00 | 0.00 | 0.00 | 53 | 1011.3 |
| 20260508182100 | 18 | 227 | 9.7 | 25.7 | 0.00 | 0.00 | 0.00 | 56 | 1011.4 |
| 20260508181606 | 18 | 260 | 9.7 | 30.6 | 0.00 | 0.00 | 0.00 | 55 | 1011.4 |
| 20260508181100 | 18 | 240 | 12.9 | 30.6 | 0.00 | 0.00 | 0.00 | 54 | 1011.7 |
| 20260508180603 | 18 | 215 | 14.5 | 24.1 | 0.00 | 0.00 | 0.00 | 53 | 1011.7 |
| 20260508180106 | 18 | 232 | 9.7 | 38.6 | 0.00 | 0.00 | 0.00 | 57 | 1011.9 |
| 20260508175600 | 18 | 273 | 9.7 | 38.6 | 0.00 | 0.00 | 0.00 | 58 | 1011.9 |
| 20260508175100 | 18 | 229 | 14.5 | 38.6 | 0.00 | 0.00 | 0.00 | 54 | 1012.1 |
| 20260508174603 | 18 | 261 | 6.4 | 30.6 | 0.00 | 0.00 | 0.00 | 60 | 1012.2 |
| 20260508174100 | 17 | 245 | 8.0 | 30.6 | 0.00 | 0.00 | 0.00 | 58 | 1012.2 |
| 20260508173600 | 17 | 248 | 14.5 | 25.7 | 0.00 | 0.00 | 0.00 | 56 | 1012.3 |
| 20260508173101 | 17 | 254 | 9.7 | 25.7 | 0.00 | 0.00 | 0.00 | 61 | 1012.5 |
| 20260508172601 | 17 | 273 | 12.9 | 25.7 | 0.00 | 0.00 | 0.00 | 58 | 1012.7 |
| 20260508172100 | 17 | 249 | 8.0 | 20.9 | 0.00 | 0.00 | 0.00 | 59 | 1012.7 |
| 20260508171559 | 16 | 243 | 12.9 | 20.9 | 0.00 | 0.00 | 0.00 | 59 | 1012.8 |
| 20260508171059 | 16 | 212 | 8.0 | 29.0 | 0.00 | 0.00 | 0.00 | 60 | 1012.9 |
| 20260508170600 | 16 | 246 | 9.7 | 29.0 | 0.00 | 0.00 | 0.00 | 59 | 1013.0 |
| 20260508165559 | 16 | 254 | 11.3 | 22.5 | 0.00 | 0.00 | 0.00 | 58 | 1013.3 |
| 20260508165102 | 16 | 252 | 9.7 | 22.5 | 0.00 | 0.00 | 0.00 | 58 | 1013.2 |
| 20260508164559 | 16 | 275 | 9.7 | 30.6 | 0.00 | 0.00 | 0.00 | 58 | 1013.2 |
| 20260508164100 | 16 | 266 | 11.3 | 30.6 | 0.00 | 0.00 | 0.00 | 58 | 1013.2 |
| 20260508163600 | 16 | 261 | 9.7 | 25.7 | 0.00 | 0.00 | 0.00 | 58 | 1013.4 |
| 20260508163109 | 17 | 250 | 12.9 | 27.4 | 0.00 | 0.00 | 0.00 | 57 | 1013.4 |
| 20260508162600 | 17 | 239 | 12.9 | 27.4 | 0.00 | 0.00 | 0.00 | 58 | 1013.5 |
| 20260508162100 | 17 | 253 | 16.1 | 27.4 | 0.00 | 0.00 | 0.00 | 57 | 1013.5 |
| 20260508161601 | 17 | 252 | 11.3 | 27.4 | 0.00 | 0.00 | 0.00 | 58 | 1013.5 |
| 20260508161100 | 17 | 283 | 16.1 | 27.4 | 0.00 | 0.00 | 0.00 | 56 | 1013.5 |
| 20260508160625 | 17 | 215 | 12.9 | 27.4 | 0.00 | 0.00 | 0.00 | 57 | 1013.5 |
| 20260508160104 | 17 | 257 | 14.5 | 29.0 | 0.00 | 0.00 | 0.00 | 58 | 1013.5 |
| 20260508155559 | 17 | 224 | 14.5 | 29.0 | 0.00 | 0.00 | 0.00 | 58 | 1013.6 |
| 20260508155100 | 16 | 281 | 12.9 | 32.2 | 0.00 | 0.00 | 0.00 | 60 | 1013.5 |
| 20260508154611 | 16 | 222 | 11.3 | 32.2 | 0.00 | 0.00 | 0.00 | 59 | 1013.6 |
| 20260508154059 | 16 | 272 | 16.1 | 32.2 | 0.00 | 0.00 | 0.00 | 56 | 1013.6 |
| 20260508153600 | 16 | 263 | 11.3 | 27.4 | 0.00 | 0.00 | 0.00 | 58 | 1013.6 |
| 20260508153110 | 16 | 296 | 12.9 | 32.2 | 0.00 | 0.00 | 0.00 | 59 | 1013.6 |
| 20260508152606 | 16 | 265 | 12.9 | 32.2 | 0.00 | 0.00 | 0.00 | 58 | 1013.7 |
| 20260508152100 | 16 | 219 | 14.5 | 32.2 | 0.00 | 0.00 | 0.00 | 57 | 1013.6 |
| 20260508151601 | 16 | 267 | 11.3 | 25.7 | 0.00 | 0.00 | 0.00 | 59 | 1013.8 |
| 20260508151059 | 16 | 247 | 12.9 | 25.7 | 0.00 | 0.00 | 0.00 | 59 | 1013.8 |
| 20260508150559 | 16 | 276 | 11.3 | 20.9 | 0.00 | 0.00 | 0.00 | 58 | 1013.9 |
| 20260508150101 | 16 | 258 | 6.4 | 20.9 | 0.00 | 0.00 | 0.00 | 61 | 1014.0 |
| 20260508145602 | 16 | 265 | 8.0 | 22.5 | 0.00 | 0.00 | 0.00 | 60 | 1014.0 |
| 20260508145100 | 15 | 269 | 8.0 | 22.5 | 0.00 | 0.00 | 0.00 | 60 | 1014.0 |
| 20260508144600 | 15 | 254 | 12.9 | 22.5 | 0.00 | 0.00 | 0.00 | 60 | 1014.2 |
| 20260508144100 | 15 | 257 | 8.0 | 17.7 | 0.00 | 0.00 | 0.00 | 60 | 1014.2 |
| 20260508143600 | 15 | 288 | 6.4 | 17.7 | 0.00 | 0.00 | 0.00 | 61 | 1014.3 |
| 20260508143118 | 14 | 225 | 8.0 | 17.7 | 0.00 | 0.00 | 0.00 | 61 | 1014.4 |
| 20260508142559 | 13 | 261 | 8.0 | 17.7 | 0.00 | 0.00 | 0.00 | 62 | 1014.3 |
| 20260508142100 | 13 | 271 | 6.4 | 19.3 | 0.00 | 0.00 | 0.00 | 62 | 1014.4 |
| 20260508141606 | 13 | 284 | 8.0 | 19.3 | 0.00 | 0.00 | 0.00 | 62 | 1014.4 |
| 20260508141059 | 13 | 263 | 6.4 | 19.3 | 0.00 | 0.00 | 0.00 | 62 | 1014.5 |
| 20260508140559 | 13 | 258 | 8.0 | 19.3 | 0.00 | 0.00 | 0.00 | 62 | 1014.3 |
| 20260508140119 | 12 | 213 | 4.8 | 19.3 | 0.00 | 0.00 | 0.00 | 63 | 1014.2 |
| 20260508135600 | 12 | 265 | 4.8 | 24.1 | 0.00 | 0.00 | 0.00 | 63 | 1014.5 |
| 20260508135059 | 12 | 216 | 8.0 | 25.7 | 0.00 | 0.00 | 0.00 | 62 | 1014.4 |
| 20260508134559 | 12 | 262 | 12.9 | 25.7 | 0.00 | 0.00 | 0.00 | 62 | 1014.3 |
| 20260508134100 | 12 | 271 | 6.4 | 24.1 | 0.00 | 0.00 | 0.00 | 63 | 1014.3 |
| 20260508133600 | 12 | 237 | 11.3 | 24.1 | 0.00 | 0.00 | 0.00 | 62 | 1014.3 |
| 20260508133105 | 12 | 288 | 6.4 | 19.3 | 0.00 | 0.00 | 0.00 | 63 | 1014.2 |
| 20260508132559 | 11 | 294 | 8.0 | 19.3 | 0.00 | 0.00 | 0.00 | 64 | 1014.3 |
| 20260508132100 | 11 | 267 | 8.0 | 20.9 | 0.00 | 0.00 | 0.00 | 64 | 1014.3 |
| 20260508131603 | 11 | 282 | 9.7 | 20.9 | 0.00 | 0.00 | 0.00 | 64 | 1014.3 |
| 20260508131100 | 11 | 258 | 6.4 | 25.7 | 0.00 | 0.00 | 0.00 | 64 | 1014.3 |
| 20260508130559 | 11 | 238 | 12.9 | 25.7 | 0.00 | 0.00 | 0.00 | 63 | 1014.3 |
| 20260508130059 | 11 | 247 | 12.9 | 24.1 | 0.00 | 0.00 | 0.00 | 64 | 1014.2 |
| 20260508125603 | 11 | 245 | 6.4 | 17.7 | 0.00 | 0.00 | 0.00 | 65 | 1014.4 |
| 20260508125100 | 10 | 250 | 6.4 | 17.7 | 0.00 | 0.00 | 0.00 | 67 | 1014.4 |
| 20260508124558 | 10 | 240 | 4.8 | 17.7 | 0.00 | 0.00 | 0.00 | 67 | 1014.3 |
| 20260508124059 | 10 | 211 | 8.0 | 22.5 | 0.00 | 0.00 | 0.00 | 68 | 1014.3 |
| 20260508123559 | 10 | 207 | 8.0 | 22.5 | 0.00 | 0.00 | 0.00 | 68 | 1014.2 |
| 20260508123058 | 9 | 225 | 6.4 | 14.5 | 0.00 | 0.00 | 0.00 | 69 | 1014.2 |
| 20260508122604 | 9 | 212 | 4.8 | 14.5 | 0.00 | 0.00 | 0.00 | 71 | 1014.2 |
| 20260508122100 | 8 | 253 | 4.8 | 14.5 | 0.00 | 0.00 | 0.00 | 69 | 1014.2 |
| 20260508121602 | 8 | 225 | 3.2 | 17.7 | 0.00 | 0.00 | 0.00 | 69 | 1014.3 |
| 20260508121059 | 8 | 215 | 8.0 | 17.7 | 0.00 | 0.00 | 0.00 | 69 | 1014.3 |
| 20260508120559 | 8 | 235 | 4.8 | 14.5 | 0.00 | 0.00 | 0.00 | 69 | 1014.1 |
| 20260508120114 | 8 | 265 | 4.8 | 16.1 | 0.00 | 0.00 | 0.00 | 69 | 1014.2 |
| 20260508115603 | 8 | 196 | 6.4 | 19.3 | 0.00 | 0.00 | 0.00 | 70 | 1014.1 |
| 20260508115059 | 8 | 115 | 9.7 | 19.3 | 0.00 | 0.00 | 0.00 | 69 | 1014.2 |
| 20260508114605 | 8 | 121 | 6.4 | 17.7 | 0.00 | 0.00 | 0.00 | 70 | 1014.1 |
| 20260508114059 | 7 | 125 | 3.2 | 12.9 | 0.00 | 0.00 | 0.00 | 71 | 1014.1 |
| 20260508113559 | 7 | 117 | 3.2 | 12.9 | 0.00 | 0.00 | 0.00 | 71 | 1014.2 |
| 20260508113103 | 7 | 114 | 4.8 | 12.9 | 0.00 | 0.00 | 0.00 | 71 | 1014.2 |
| 20260508112559 | 7 | 113 | 4.8 | 12.9 | 0.00 | 0.00 | 0.00 | 72 | 1014.1 |
| 20260508112059 | 7 | 136 | 4.8 | 12.9 | 0.00 | 0.00 | 0.00 | 71 | 1014.0 |
| 20260508111556 | 7 | 137 | 3.2 | 17.7 | 0.00 | 0.00 | 0.00 | 72 | 1014.1 |
| 20260508111056 | 7 | 0 | 6.4 | 17.7 | 0.00 | 0.00 | 0.00 | 71 | 1014.0 |
| 20260508110559 | 7 | 130 | 4.8 | 12.9 | 0.00 | 0.00 | 0.00 | 71 | 1013.9 |
| 20260508110106 | 7 | 116 | 4.8 | 12.9 | 0.00 | 0.00 | 0.00 | 71 | 1013.9 |
| 20260508105601 | 7 | 126 | 4.8 | 17.7 | 0.00 | 0.00 | 0.00 | 71 | 1013.9 |
| 20260508105059 | 7 | 138 | 4.8 | 17.7 | 0.00 | 0.00 | 0.00 | 71 | 1013.9 |
| 20260508104600 | 7 | 113 | 6.4 | 14.5 | 0.00 | 0.00 | 0.00 | 71 | 1013.8 |
| 20260508104100 | 7 | 129 | 4.8 | 16.1 | 0.00 | 0.00 | 0.00 | 70 | 1013.8 |
| 20260508103559 | 7 | 126 | 8.0 | 16.1 | 0.00 | 0.00 | 0.00 | 70 | 1013.7 |
| 20260508103100 | 7 | 124 | 6.4 | 14.5 | 0.00 | 0.00 | 0.00 | 70 | 1013.7 |
| 20260508102559 | 7 | 120 | 4.8 | 14.5 | 0.00 | 0.00 | 0.00 | 70 | 1013.7 |
| 20260508102102 | 7 | 127 | 6.4 | 16.1 | 0.00 | 0.00 | 0.00 | 70 | 1013.7 |
| 20260508101604 | 7 | 121 | 6.4 | 16.1 | 0.00 | 0.00 | 0.00 | 70 | 1013.7 |
| 20260508101100 | 7 | 118 | 6.4 | 16.1 | 0.00 | 0.00 | 0.00 | 70 | 1013.6 |
| 20260508100602 | 7 | 109 | 6.4 | 16.1 | 0.00 | 0.00 | 0.00 | 70 | 1013.6 |
| 20260508100129 | 7 | 126 | 4.8 | 12.9 | 0.00 | 0.00 | 0.00 | 70 | 1013.6 |
| 20260508095601 | 7 | 125 | 4.8 | 12.9 | 0.00 | 0.00 | 0.00 | 70 | 1013.6 |
| 20260508095100 | 7 | 113 | 6.4 | 12.9 | 0.00 | 0.00 | 0.00 | 70 | 1013.5 |
| 20260508094600 | 7 | 111 | 6.4 | 14.5 | 0.00 | 0.00 | 0.00 | 70 | 1013.5 |
| 20260508094100 | 7 | 109 | 6.4 | 14.5 | 0.00 | 0.00 | 0.00 | 70 | 1013.4 |
| 20260508093600 | 7 | 102 | 6.4 | 12.9 | 0.00 | 0.00 | 0.00 | 70 | 1013.6 |
| 20260508093058 | 7 | 117 | 4.8 | 14.5 | 0.00 | 0.00 | 0.00 | 70 | 1013.6 |
| 20260508092559 | 7 | 111 | 4.8 | 14.5 | 0.00 | 0.00 | 0.00 | 69 | 1013.6 |
| 20260508092059 | 7 | 112 | 4.8 | 14.5 | 0.00 | 0.00 | 0.00 | 69 | 1013.7 |
| 20260508091613 | 7 | 111 | 4.8 | 14.5 | 0.00 | 0.00 | 0.00 | 68 | 1013.7 |
| 20260508091101 | 7 | 109 | 4.8 | 14.5 | 0.00 | 0.00 | 0.00 | 68 | 1013.6 |
| 20260508090600 | 7 | 103 | 3.2 | 14.5 | 0.00 | 0.00 | 0.00 | 68 | 1013.7 |
| 20260508090059 | 7 | 107 | 4.8 | 12.9 | 0.00 | 0.00 | 0.00 | 68 | 1013.8 |
| 20260508085600 | 7 | 121 | 3.2 | 14.5 | 0.00 | 0.00 | 0.00 | 68 | 1013.8 |
| 20260508085059 | 7 | 113 | 4.8 | 14.5 | 0.00 | 0.00 | 0.00 | 68 | 1013.7 |
| 20260508084557 | 7 | 116 | 3.2 | 12.9 | 0.00 | 0.00 | 0.00 | 68 | 1013.7 |
| 20260508084100 | 7 | 126 | 6.4 | 12.9 | 0.00 | 0.00 | 0.00 | 68 | 1013.8 |
| 20260508083600 | 7 | 121 | 4.8 | 12.9 | 0.00 | 0.00 | 0.00 | 68 | 1013.7 |
| 20260508083059 | 7 | 117 | 3.2 | 11.3 | 0.00 | 0.00 | 0.00 | 67 | 1013.6 |
| 20260508082556 | 7 | 128 | 3.2 | 11.3 | 0.00 | 0.00 | 0.00 | 67 | 1013.6 |
| 20260508082056 | 7 | 130 | 4.8 | 11.3 | 0.00 | 0.00 | 0.00 | 68 | 1013.7 |
| 20260508081613 | 7 | 0 | 4.8 | 12.9 | 0.00 | 0.00 | 0.00 | 67 | 1013.7 |
| 20260508081055 | 7 | 119 | 3.2 | 12.9 | 0.00 | 0.00 | 0.00 | 67 | 1013.7 |
| 20260508080601 | 7 | 123 | 4.8 | 14.5 | 0.00 | 0.00 | 0.00 | 66 | 1013.7 |
| 20260508080101 | 8 | 128 | 3.2 | 14.5 | 0.00 | 0.00 | 0.00 | 66 | 1013.7 |
| 20260508075600 | 8 | 0 | 6.4 | 14.5 | 0.00 | 0.00 | 0.00 | 66 | 1013.7 |
| 20260508075101 | 8 | 125 | 3.2 | 17.7 | 0.00 | 0.00 | 0.00 | 65 | 1013.7 |
| 20260508074608 | 8 | 148 | 6.4 | 17.7 | 0.00 | 0.00 | 0.00 | 65 | 1013.7 |
| 20260508074100 | 8 | 131 | 3.2 | 16.1 | 0.00 | 0.00 | 0.00 | 65 | 1013.7 |
| 20260508073559 | 8 | 117 | 6.4 | 16.1 | 0.00 | 0.00 | 0.00 | 64 | 1013.6 |
| 20260508073105 | 8 | 117 | 4.8 | 22.5 | 0.00 | 0.00 | 0.00 | 64 | 1013.7 |
| 20260508072556 | 8 | 136 | 6.4 | 22.5 | 0.00 | 0.00 | 0.00 | 63 | 1013.8 |
| 20260508072103 | 8 | 124 | 8.0 | 22.5 | 0.00 | 0.00 | 0.00 | 63 | 1013.7 |
| 20260508071558 | 8 | 132 | 6.4 | 17.7 | 0.00 | 0.00 | 0.00 | 63 | 1013.7 |
| 20260508071101 | 8 | 131 | 4.8 | 17.7 | 0.00 | 0.00 | 0.00 | 63 | 1013.9 |
| 20260508070600 | 9 | 126 | 4.8 | 17.7 | 0.00 | 0.00 | 0.00 | 63 | 1013.9 |
| 20260508070100 | 9 | 128 | 3.2 | 25.7 | 0.00 | 0.00 | 0.00 | 63 | 1013.9 |
| 20260508065558 | 9 | 138 | 11.3 | 25.7 | 0.00 | 0.00 | 0.00 | 63 | 1013.9 |
| 20260508065059 | 8 | 112 | 4.8 | 19.3 | 0.00 | 0.00 | 0.00 | 66 | 1013.9 |
| 20260508064600 | 8 | 0 | 6.4 | 19.3 | 0.00 | 0.00 | 0.00 | 68 | 1014.3 |
| 20260508064059 | 9 | 166 | 9.7 | 16.1 | 0.00 | 0.00 | 0.00 | 68 | 1014.5 |
| 20260508063559 | 9 | 173 | 1.6 | 17.7 | 0.00 | 0.00 | 0.00 | 65 | 1014.4 |
| 20260508063100 | 9 | 134 | 4.8 | 17.7 | 0.00 | 0.00 | 0.00 | 64 | 1013.9 |
| 20260508062559 | 9 | 132 | 9.7 | 17.7 | 0.00 | 0.00 | 0.00 | 63 | 1013.7 |
| 20260508062059 | 9 | 117 | 8.0 | 19.3 | 0.00 | 0.00 | 0.00 | 63 | 1013.8 |
| 20260508061604 | 9 | 109 | 8.0 | 19.3 | 0.00 | 0.00 | 0.00 | 63 | 1013.8 |
| 20260508061056 | 9 | 142 | 9.7 | 19.3 | 0.00 | 0.00 | 0.00 | 63 | 1013.7 |
| 20260508060556 | 10 | 127 | 6.4 | 22.5 | 0.00 | 0.00 | 0.00 | 63 | 1013.8 |
| 20260508060121 | 10 | 123 | 11.3 | 22.5 | 0.00 | 0.00 | 0.00 | 63 | 1013.9 |
| 20260508055556 | 10 | 103 | 9.7 | 22.5 | 0.00 | 0.00 | 0.00 | 62 | 1013.9 |
| 20260508055059 | 10 | 112 | 6.4 | 20.9 | 0.00 | 0.00 | 0.00 | 63 | 1013.9 |
| 20260508054642 | 10 | 106 | 8.0 | 19.3 | 0.00 | 0.00 | 0.00 | 62 | 1013.9 |
| 20260508054056 | 10 | 124 | 9.7 | 19.3 | 0.00 | 0.00 | 0.00 | 62 | 1013.9 |
| 20260508053558 | 10 | 107 | 8.0 | 16.1 | 0.00 | 0.00 | 0.00 | 62 | 1013.9 |
| 20260508053059 | 10 | 136 | 8.0 | 16.1 | 0.00 | 0.00 | 0.00 | 63 | 1013.9 |
| 20260508052556 | 9 | 116 | 8.0 | 19.3 | 0.00 | 0.00 | 0.00 | 63 | 1014.0 |
| 20260508052059 | 9 | 111 | 6.4 | 19.3 | 0.00 | 0.00 | 0.00 | 63 | 1013.9 |
| 20260508051600 | 9 | 123 | 4.8 | 16.1 | 0.00 | 0.00 | 0.00 | 63 | 1013.9 |
| 20260508051059 | 9 | 126 | 6.4 | 16.1 | 0.00 | 0.00 | 0.00 | 64 | 1014.0 |
| 20260508050600 | 9 | 105 | 6.4 | 14.5 | 0.00 | 0.00 | 0.00 | 64 | 1013.9 |
| 20260508050057 | 9 | 111 | 6.4 | 12.9 | 0.00 | 0.00 | 0.00 | 64 | 1014.1 |
| 20260508045558 | 9 | 121 | 4.8 | 12.9 | 0.00 | 0.00 | 0.00 | 64 | 1014.0 |
| 20260508045056 | 9 | 124 | 4.8 | 12.9 | 0.00 | 0.00 | 0.00 | 64 | 1014.1 |
| 20260508044557 | 9 | 119 | 4.8 | 12.9 | 0.00 | 0.00 | 0.00 | 64 | 1014.1 |
| 20260508044059 | 9 | 86 | 1.6 | 9.7 | 0.00 | 0.00 | 0.00 | 64 | 1014.3 |
| 20260508043558 | 8 | 0 | 1.6 | 9.7 | 0.00 | 0.00 | 0.00 | 64 | 1014.3 |
| 20260508043101 | 8 | 0 | 0.0 | 3.2 | 0.00 | 0.00 | 0.00 | 64 | 1014.2 |
| 20260508042559 | 8 | 0 | 0.0 | 3.2 | 0.00 | 0.00 | 0.00 | 64 | 1014.2 |
| 20260508042101 | 9 | 0 | 0.0 | 1.6 | 0.00 | 0.00 | 0.00 | 64 | 1014.1 |
| 20260508041556 | 9 | 0 | 0.0 | 0.0 | 0.00 | 0.00 | 0.00 | 64 | 1014.3 |
| 20260508041059 | 9 | 0 | 0.0 | 4.8 | 0.00 | 0.00 | 0.00 | 63 | 1014.4 |
| 20260508040559 | 9 | 0 | 0.0 | 6.4 | 0.00 | 0.00 | 0.00 | 63 | 1014.3 |
| 20260508040100 | 9 | 0 | 0.0 | 6.4 | 0.00 | 0.00 | 0.00 | 63 | 1014.4 |
| 20260508035559 | 9 | 0 | 1.6 | 11.3 | 0.00 | 0.00 | 0.00 | 63 | 1014.2 |
| 20260508035100 | 9 | 103 | 1.6 | 11.3 | 0.00 | 0.00 | 0.00 | 63 | 1014.0 |
| 20260508034558 | 9 | 103 | 3.2 | 9.7 | 0.00 | 0.00 | 0.00 | 63 | 1014.1 |
| 20260508034100 | 8 | 112 | 3.2 | 6.4 | 0.00 | 0.00 | 0.00 | 63 | 1014.2 |
| 20260508033559 | 8 | 0 | 0.0 | 6.4 | 0.00 | 0.00 | 0.00 | 63 | 1014.1 |
| 20260508033059 | 8 | 104 | 0.0 | 4.8 | 0.00 | 0.00 | 0.00 | 65 | 1014.1 |
| 20260508032559 | 8 | 0 | 0.0 | 6.4 | 0.00 | 0.00 | 0.00 | 65 | 1014.1 |
| 20260508032101 | 8 | 0 | 0.0 | 6.4 | 0.00 | 0.00 | 0.00 | 65 | 1014.0 |
| 20260508031602 | 8 | 0 | 0.0 | 6.4 | 0.00 | 0.00 | 0.00 | 64 | 1014.0 |
| 20260508031101 | 8 | 0 | 0.0 | 3.2 | 0.00 | 0.00 | 0.00 | 64 | 1013.9 |
| 20260508030602 | 8 | 0 | 0.0 | 3.2 | 0.00 | 0.00 | 0.00 | 64 | 1013.9 |
| 20260508030109 | 8 | 0 | 0.0 | 4.8 | 0.00 | 0.00 | 0.00 | 63 | 1014.0 |
| 20260508025601 | 8 | 0 | 0.0 | 6.4 | 0.00 | 0.00 | 0.00 | 63 | 1013.9 |
| 20260508025059 | 8 | 0 | 0.0 | 6.4 | 0.00 | 0.00 | 0.00 | 63 | 1014.0 |
| 20260508024617 | 8 | 109 | 0.0 | 4.8 | 0.00 | 0.00 | 0.00 | 63 | 1014.1 |
| 20260508024101 | 8 | 110 | 0.0 | 4.8 | 0.00 | 0.00 | 0.00 | 63 | 1014.0 |
| 20260508023602 | 9 | 0 | 0.0 | 3.2 | 0.00 | 0.00 | 0.00 | 62 | 1014.0 |
| 20260508023059 | 9 | 0 | 0.0 | 4.8 | 0.00 | 0.00 | 0.00 | 62 | 1014.1 |
| 20260508022602 | 9 | 0 | 0.0 | 4.8 | 0.00 | 0.00 | 0.00 | 62 | 1013.9 |
| 20260508022101 | 9 | 104 | 0.0 | 0.0 | 0.00 | 0.00 | 0.00 | 62 | 1013.8 |
| 20260508021602 | 9 | 0 | 0.0 | 0.0 | 0.00 | 0.00 | 0.00 | 62 | 1014.0 |
| 20260508021059 | 9 | 0 | 0.0 | 0.0 | 0.00 | 0.00 | 0.00 | 62 | 1014.1 |
| 20260508020602 | 9 | 0 | 0.0 | 0.0 | 0.00 | 0.00 | 0.00 | 62 | 1014.1 |
| 20260508020108 | 9 | 0 | 0.0 | 0.0 | 0.00 | 0.00 | 0.00 | 62 | 1014.0 |
| 20260508015559 | 9 | 0 | 0.0 | 0.0 | 0.00 | 0.00 | 0.00 | 62 | 1013.9 |
| 20260508015059 | 9 | 0 | 0.0 | 3.2 | 0.00 | 0.00 | 0.00 | 62 | 1014.0 |
| 20260508014625 | 9 | 0 | 0.0 | 3.2 | 0.00 | 0.00 | 0.00 | 62 | 1013.9 |
| 20260508014058 | 9 | 0 | 0.0 | 3.2 | 0.00 | 0.00 | 0.00 | 62 | 1014.1 |
| 20260508013559 | 9 | 0 | 0.0 | 3.2 | 0.00 | 0.00 | 0.00 | 62 | 1014.0 |
| 20260508013101 | 9 | 0 | 0.0 | 3.2 | 0.00 | 0.00 | 0.00 | 62 | 1014.0 |
| 20260508012601 | 9 | 0 | 0.0 | 1.6 | 0.00 | 0.00 | 0.00 | 61 | 1014.0 |
| 20260508012058 | 9 | 0 | 0.0 | 0.0 | 0.00 | 0.00 | 0.00 | 61 | 1013.9 |
| 20260508011615 | 10 | 0 | 0.0 | 0.0 | 0.00 | 0.00 | 0.00 | 60 | 1014.0 |
| 20260508011100 | 10 | 0 | 0.0 | 1.6 | 0.00 | 0.00 | 0.00 | 60 | 1013.9 |
| 20260508010559 | 10 | 0 | 0.0 | 1.6 | 0.00 | 0.00 | 0.00 | 60 | 1013.9 |
| 20260508005601 | 10 | 0 | 0.0 | 3.2 | 0.00 | 0.00 | 0.00 | 58 | 1013.9 |
| 20260508005101 | 10 | 0 | 0.0 | 3.2 | 0.00 | 0.00 | 0.00 | 58 | 1013.9 |
| 20260508004600 | 10 | 0 | 0.0 | 3.2 | 0.00 | 0.00 | 0.00 | 58 | 1013.8 |
| 20260508004101 | 11 | 0 | 0.0 | 3.2 | 0.00 | 0.00 | 0.00 | 58 | 1013.7 |
| 20260508003605 | 11 | 0 | 0.0 | 3.2 | 0.00 | 0.00 | 0.00 | 58 | 1013.7 |
| 20260508003059 | 11 | 0 | 0.0 | 4.8 | 0.00 | 0.00 | 0.00 | 57 | 1013.8 |
| 20260508002559 | 11 | 0 | 0.0 | 4.8 | 0.00 | 0.00 | 0.00 | 57 | 1013.6 |
| 20260508002056 | 11 | 0 | 0.0 | 4.8 | 0.00 | 0.00 | 0.00 | 56 | 1013.6 |
| 20260508001602 | 12 | 0 | 0.0 | 9.7 | 0.00 | 0.00 | 0.00 | 55 | 1013.8 |
| 20260508001059 | 12 | 292 | 0.0 | 9.7 | 0.00 | 0.00 | 0.00 | 54 | 1013.6 |
| 20260508000555 | 12 | 282 | 0.0 | 9.7 | 0.00 | 0.00 | 0.00 | 54 | 1013.5 |
| 20260508000057 | 12 | 0 | 1.6 | 9.7 | 0.00 | 0.00 | 0.00 | 55 | 1013.6 |
| 20260507235559 | 12 | 287 | 1.6 | 12.9 | 0.00 | 0.00 | 0.00 | 54 | 1013.5 |
| 20260507235056 | 12 | 301 | 4.8 | 12.9 | 0.00 | 0.00 | 0.00 | 52 | 1013.6 |
| 20260507234600 | 12 | 279 | 3.2 | 11.3 | 0.00 | 0.00 | 0.00 | 52 | 1013.6 |
| 20260507234101 | 12 | 300 | 3.2 | 11.3 | 0.00 | 0.00 | 0.00 | 53 | 1013.6 |
| 20260507233601 | 13 | 273 | 1.6 | 9.7 | 0.00 | 0.00 | 0.00 | 52 | 1013.5 |
| 20260507233059 | 13 | 304 | 3.2 | 9.7 | 0.00 | 0.00 | 0.00 | 53 | 1013.6 |
| 20260507232556 | 13 | 323 | 3.2 | 12.9 | 0.00 | 0.00 | 0.00 | 52 | 1013.5 |
| 20260507232058 | 13 | 334 | 1.6 | 12.9 | 0.00 | 0.00 | 0.00 | 51 | 1013.5 |
| 20260507231558 | 13 | 327 | 4.8 | 12.9 | 0.00 | 0.00 | 0.00 | 51 | 1013.5 |
| 20260507231103 | 13 | 313 | 4.8 | 16.1 | 0.00 | 0.00 | 0.00 | 51 | 1013.5 |
| 20260507230557 | 13 | 321 | 4.8 | 17.7 | 0.00 | 0.00 | 0.00 | 51 | 1013.4 |
| 20260507230059 | 13 | 320 | 6.4 | 17.7 | 0.00 | 0.00 | 0.00 | 51 | 1013.5 |
| 20260507225558 | 13 | 319 | 8.0 | 16.1 | 0.00 | 0.00 | 0.00 | 50 | 1013.5 |
| 20260507225059 | 13 | 333 | 8.0 | 16.1 | 0.00 | 0.00 | 0.00 | 50 | 1013.4 |
| 20260507224604 | 13 | 333 | 8.0 | 17.7 | 0.00 | 0.00 | 0.00 | 50 | 1013.6 |
| 20260507224056 | 14 | 309 | 6.4 | 17.7 | 0.00 | 0.00 | 0.00 | 49 | 1013.6 |
| 20260507223601 | 14 | 279 | 6.4 | 19.3 | 0.00 | 0.00 | 0.00 | 50 | 1013.5 |
| 20260507223055 | 14 | 281 | 6.4 | 19.3 | 0.00 | 0.00 | 0.00 | 47 | 1013.6 |
| 20260507222556 | 14 | 316 | 9.7 | 19.3 | 0.00 | 0.00 | 0.00 | 48 | 1013.6 |
| 20260507222056 | 14 | 284 | 4.8 | 20.9 | 0.00 | 0.00 | 0.00 | 50 | 1013.7 |
| 20260507221558 | 14 | 317 | 6.4 | 22.5 | 0.00 | 0.00 | 0.00 | 49 | 1013.7 |
| 20260507221103 | 14 | 315 | 4.8 | 25.7 | 0.00 | 0.00 | 0.00 | 48 | 1013.7 |
| 20260507220557 | 15 | 301 | 9.7 | 25.7 | 0.00 | 0.00 | 0.00 | 47 | 1013.6 |
| 20260507220057 | 15 | 302 | 8.0 | 20.9 | 0.00 | 0.00 | 0.00 | 48 | 1013.7 |
| 20260507215557 | 15 | 294 | 8.0 | 20.9 | 0.00 | 0.00 | 0.00 | 49 | 1013.7 |
| 20260507215056 | 14 | 312 | 8.0 | 20.9 | 0.00 | 0.00 | 0.00 | 50 | 1013.6 |
| 20260507214559 | 14 | 342 | 9.7 | 20.9 | 0.00 | 0.00 | 0.00 | 49 | 1013.8 |
| 20260507214056 | 13 | 34 | 11.3 | 20.9 | 0.00 | 0.00 | 0.00 | 50 | 1013.7 |
| 20260507213556 | 13 | 35 | 11.3 | 19.3 | 0.00 | 0.00 | 0.00 | 51 | 1013.6 |
| 20260507213058 | 13 | 339 | 12.9 | 24.1 | 0.00 | 0.00 | 0.00 | 51 | 1013.6 |
| 20260507212604 | 13 | 346 | 9.7 | 24.1 | 0.00 | 0.00 | 0.00 | 53 | 1013.6 |
| 20260507212101 | 13 | 355 | 12.9 | 22.5 | 0.00 | 0.00 | 0.00 | 51 | 1013.6 |
| 20260507211606 | 13 | 26 | 8.0 | 20.9 | 0.00 | 0.00 | 0.00 | 50 | 1013.4 |
| 20260507211101 | 14 | 295 | 6.4 | 20.9 | 0.00 | 0.00 | 0.00 | 49 | 1013.5 |
| 20260507210601 | 14 | 333 | 4.8 | 25.7 | 0.00 | 0.00 | 0.00 | 50 | 1013.4 |
| 20260507210104 | 14 | 355 | 6.4 | 25.7 | 0.00 | 0.00 | 0.00 | 51 | 1013.5 |
| 20260507205559 | 14 | 321 | 16.1 | 25.7 | 0.00 | 0.00 | 0.00 | 51 | 1013.5 |
| 20260507205100 | 13 | 317 | 8.0 | 24.1 | 0.00 | 0.00 | 0.00 | 53 | 1013.5 |
| 20260507204601 | 13 | 339 | 9.7 | 25.7 | 0.00 | 0.00 | 0.00 | 52 | 1013.4 |
| 20260507204059 | 13 | 29 | 11.3 | 25.7 | 0.00 | 0.00 | 0.00 | 54 | 1013.4 |
| 20260507203559 | 13 | 24 | 8.0 | 30.6 | 0.00 | 0.00 | 0.00 | 53 | 1013.3 |
| 20260507203100 | 13 | 34 | 12.9 | 30.6 | 0.00 | 0.00 | 0.00 | 52 | 1013.4 |
| 20260507202600 | 14 | 34 | 16.1 | 30.6 | 0.00 | 0.00 | 0.00 | 52 | 1013.4 |
| 20260507202101 | 13 | 345 | 3.2 | 22.5 | 0.00 | 0.00 | 0.00 | 52 | 1013.3 |
| 20260507201600 | 14 | 331 | 12.9 | 22.5 | 0.00 | 0.00 | 0.00 | 52 | 1013.3 |
| 20260507201100 | 13 | 318 | 8.0 | 22.5 | 0.00 | 0.00 | 0.00 | 54 | 1013.4 |
| 20260507200600 | 13 | 355 | 12.9 | 25.7 | 0.00 | 0.00 | 0.00 | 53 | 1013.5 |
| 20260507200100 | 13 | 279 | 14.5 | 29.0 | 0.00 | 0.00 | 0.00 | 52 | 1013.6 |
| 20260507195559 | 14 | 324 | 12.9 | 29.0 | 0.00 | 0.00 | 0.00 | 53 | 1013.5 |
| 20260507195102 | 14 | 360 | 14.5 | 29.0 | 0.00 | 0.00 | 0.00 | 54 | 1013.5 |